Year,Month,Day,Hour,Minute,Value (Times are PST for temperature in C)
2010,05,28,09,53,12.30
2010,05,28,09,54,12.40
2010,05,28,09,55,12.40
2010,05,28,09,56,12.40
2010,05,28,09,57,12.40
2010,05,28,09,58,12.40
2010,05,28,09,59,12.40
2010,05,28,10,00,12.40
2010,05,28,10,01,12.40
2010,05,28,10,02,12.40
2010,05,28,10,03,12.40
2010,05,28,10,04,12.40
2010,05,28,10,05,12.40
2010,05,28,10,06,12.50
2010,05,28,10,07,12.50
2010,05,28,10,08,12.50
2010,05,28,10,09,12.50
2010,05,28,10,10,12.50
2010,05,28,10,11,12.50
2010,05,28,10,12,12.50
2010,05,28,10,13,12.50
2010,05,28,10,14,12.50
2010,05,28,10,15,12.50
2010,05,28,10,16,12.50
2010,05,28,10,17,12.50
2010,05,28,10,18,12.60
2010,05,28,10,19,12.60
2010,05,28,10,20,12.60
2010,05,28,10,21,12.60
2010,05,28,10,22,12.60
2010,05,28,10,23,12.60
2010,05,28,10,24,12.60
2010,05,28,10,25,12.60
2010,05,28,10,26,12.60
2010,05,28,10,27,12.60
2010,05,28,10,28,12.60
2010,05,28,10,29,12.70
2010,05,28,10,30,12.70
2010,05,28,10,31,12.70
2010,05,28,10,32,12.70
2010,05,28,10,33,12.70
2010,05,28,10,34,12.70
2010,05,28,10,35,12.70
2010,05,28,10,36,12.70
2010,05,28,10,37,12.70
2010,05,28,10,38,12.70
2010,05,28,10,39,12.70
2010,05,28,10,40,12.80
2010,05,28,10,41,12.80
2010,05,28,10,42,12.80
2010,05,28,10,43,12.80
2010,05,28,10,44,12.80
2010,05,28,10,45,12.80
2010,05,28,10,46,12.80
2010,05,28,10,47,12.80
2010,05,28,10,48,12.80
2010,05,28,10,49,12.80
2010,05,28,10,50,12.80
2010,05,28,10,51,12.80
2010,05,28,10,52,12.80
2010,05,28,10,53,12.80
2010,05,28,10,54,12.70
2010,05,28,10,55,12.70
2010,05,28,10,56,12.70
2010,05,28,10,57,12.70
2010,05,28,10,58,12.70
2010,05,28,10,59,12.70
2010,05,28,11,00,12.80
2010,05,28,11,01,12.80
2010,05,28,11,02,12.80
2010,05,28,11,03,12.80
2010,05,28,11,04,12.90
2010,05,28,11,05,12.90
2010,05,28,11,06,12.90
2010,05,28,11,07,13.00
2010,05,28,11,08,13.00
2010,05,28,11,09,13.00
2010,05,28,11,10,13.00
2010,05,28,11,11,13.10
2010,05,28,11,12,13.10
2010,05,28,11,13,13.10
2010,05,28,11,14,13.10
2010,05,28,11,15,13.10
2010,05,28,11,16,13.10
2010,05,28,11,17,13.10
2010,05,28,11,18,13.10
2010,05,28,11,19,13.10
2010,05,28,11,20,13.10
2010,05,28,11,21,13.10
2010,05,28,11,22,13.10
2010,05,28,11,23,13.10
2010,05,28,11,24,13.10
2010,05,28,11,25,13.10
2010,05,28,11,26,13.20
2010,05,28,11,27,13.20
2010,05,28,11,28,13.20
2010,05,28,11,29,13.20
2010,05,28,11,30,13.20
2010,05,28,11,31,13.20
2010,05,28,11,32,13.20
2010,05,28,11,33,13.20
2010,05,28,11,34,13.20
2010,05,28,11,35,13.20
2010,05,28,11,36,13.20
2010,05,28,11,37,13.20
2010,05,28,11,38,13.20
2010,05,28,11,39,13.30
2010,05,28,11,40,13.30
2010,05,28,11,41,13.30
2010,05,28,11,42,13.30
2010,05,28,11,43,13.30
2010,05,28,11,44,13.30
2010,05,28,11,45,13.30
2010,05,28,11,46,13.30
2010,05,28,11,47,13.30
2010,05,28,11,48,13.30
2010,05,28,11,49,13.30
2010,05,28,11,50,13.30
2010,05,28,11,51,13.30
2010,05,28,11,52,13.30
2010,05,28,11,53,13.40
2010,05,28,11,54,13.40
2010,05,28,11,55,13.40
2010,05,28,11,56,13.40
2010,05,28,11,57,13.40
2010,05,28,11,58,13.40
2010,05,28,11,59,13.50
2010,05,28,12,00,13.50
2010,05,28,12,01,13.50
2010,05,28,12,02,13.50
2010,05,28,12,03,13.60
2010,05,28,12,04,13.60
2010,05,28,12,05,13.60
2010,05,28,12,06,13.60
2010,05,28,12,07,13.60
2010,05,28,12,08,13.60
2010,05,28,12,09,13.60
2010,05,28,12,10,13.60
2010,05,28,12,11,13.70
2010,05,28,12,12,13.70
2010,05,28,12,13,13.80
2010,05,28,12,14,13.80
2010,05,28,12,15,13.80
2010,05,28,12,16,13.70
2010,05,28,12,17,13.70
2010,05,28,12,18,13.70
2010,05,28,12,19,13.70
2010,05,28,12,20,13.80
2010,05,28,12,21,13.70
2010,05,28,12,22,13.70
2010,05,28,12,23,13.60
2010,05,28,12,24,13.60
2010,05,28,12,25,13.60
2010,05,28,12,26,13.60
2010,05,28,12,27,13.60
2010,05,28,12,28,13.60
2010,05,28,12,29,13.60
2010,05,28,12,30,13.60
2010,05,28,12,31,13.60
2010,05,28,12,32,13.60
2010,05,28,12,33,13.70
2010,05,28,12,34,13.70
2010,05,28,12,35,13.70
2010,05,28,12,36,13.70
2010,05,28,12,37,13.70
2010,05,28,12,38,13.70
2010,05,28,12,39,13.70
2010,05,28,12,40,13.70
2010,05,28,12,41,13.80
2010,05,28,12,42,13.80
2010,05,28,12,43,13.90
2010,05,28,12,44,13.90
2010,05,28,12,45,14.00
2010,05,28,12,46,14.00
2010,05,28,12,47,14.00
2010,05,28,12,48,14.00
2010,05,28,12,49,14.10
2010,05,28,12,50,14.10
2010,05,28,12,51,14.20
2010,05,28,12,52,14.20
2010,05,28,12,53,14.20
2010,05,28,12,54,14.20
2010,05,28,12,55,14.30
2010,05,28,12,56,14.30
2010,05,28,12,57,14.30
2010,05,28,12,58,14.30
2010,05,28,12,59,14.30
2010,05,28,13,00,14.30
2010,05,28,13,01,14.30
2010,05,28,13,02,14.30
2010,05,28,13,03,14.30
2010,05,28,13,04,14.30
2010,05,28,13,05,14.30
2010,05,28,13,06,14.30
2010,05,28,13,07,14.30
2010,05,28,13,08,14.30
2010,05,28,13,09,14.30
2010,05,28,13,10,14.30
2010,05,28,13,11,14.20
2010,05,28,13,12,14.20
2010,05,28,13,13,14.20
2010,05,28,13,14,14.10
2010,05,28,13,15,14.20
2010,05,28,13,16,14.20
2010,05,28,13,17,14.20
2010,05,28,13,18,14.20
2010,05,28,13,19,14.30
2010,05,28,13,20,14.30
2010,05,28,13,21,14.30
2010,05,28,13,22,14.30
2010,05,28,13,23,14.30
2010,05,28,13,24,14.30
2010,05,28,13,25,14.30
2010,05,28,13,26,14.30
2010,05,28,13,27,14.30
2010,05,28,13,28,14.30
2010,05,28,13,29,14.30
2010,05,28,13,30,14.30
2010,05,28,13,31,14.30
2010,05,28,13,32,14.30
2010,05,28,13,33,14.30
2010,05,28,13,34,14.30
2010,05,28,13,35,14.30
2010,05,28,13,36,14.30
2010,05,28,13,37,14.30
2010,05,28,13,38,14.30
2010,05,28,13,39,14.30
2010,05,28,13,40,14.30
2010,05,28,13,41,14.30
2010,05,28,13,42,14.30
2010,05,28,13,43,14.30
2010,05,28,13,44,14.30
2010,05,28,13,45,14.30
2010,05,28,13,46,14.30
2010,05,28,13,47,14.30
2010,05,28,13,48,14.30
2010,05,28,13,49,14.30
2010,05,28,13,50,14.20
2010,05,28,13,51,14.20
2010,05,28,13,52,14.20
2010,05,28,13,53,14.30
2010,05,28,13,54,14.30
2010,05,28,13,55,14.30
2010,05,28,13,56,14.40
2010,05,28,13,57,14.40
2010,05,28,13,58,14.40
2010,05,28,13,59,14.40
2010,05,28,14,00,14.50
2010,05,28,14,01,14.50
2010,05,28,14,02,14.50
2010,05,28,14,03,14.50
2010,05,28,14,04,14.50
2010,05,28,14,05,14.60
2010,05,28,14,06,14.60
2010,05,28,14,07,14.60
2010,05,28,14,08,14.70
2010,05,28,14,09,14.70
2010,05,28,14,10,14.70
2010,05,28,14,11,14.80
2010,05,28,14,12,14.80
2010,05,28,14,13,14.80
2010,05,28,14,14,14.80
2010,05,28,14,15,14.80
2010,05,28,14,16,14.80
2010,05,28,14,17,14.70
2010,05,28,14,18,14.70
2010,05,28,14,19,14.60
2010,05,28,14,20,14.60
2010,05,28,14,21,14.60
2010,05,28,14,22,14.50
2010,05,28,14,23,14.50
2010,05,28,14,24,14.40
2010,05,28,14,25,14.40
2010,05,28,14,26,14.30
2010,05,28,14,27,14.30
2010,05,28,14,28,14.30
2010,05,28,14,29,14.30
2010,05,28,14,30,14.30
2010,05,28,14,31,14.30
2010,05,28,14,32,14.30
2010,05,28,14,33,14.30
2010,05,28,14,34,14.20
2010,05,28,14,35,14.20
2010,05,28,14,36,14.20
2010,05,28,14,37,14.20
2010,05,28,14,38,14.20
2010,05,28,14,39,14.20
2010,05,28,14,40,14.20
2010,05,28,14,41,14.10
2010,05,28,14,42,14.10
2010,05,28,14,43,14.10
2010,05,28,14,44,14.10
2010,05,28,14,45,14.10
2010,05,28,14,46,14.10
2010,05,28,14,47,14.10
2010,05,28,14,48,14.10
2010,05,28,14,49,14.10
2010,05,28,14,50,14.10
2010,05,28,14,51,14.10
2010,05,28,14,52,14.00
2010,05,28,14,53,14.00
2010,05,28,14,54,14.10
2010,05,28,14,55,14.10
2010,05,28,14,56,14.10
2010,05,28,14,57,14.10
2010,05,28,14,58,14.10
2010,05,28,14,59,14.10
2010,05,28,15,00,14.10
2010,05,28,15,01,14.10
2010,05,28,15,02,14.10
2010,05,28,15,03,14.10
2010,05,28,15,04,14.00
2010,05,28,15,05,14.00
2010,05,28,15,06,13.90
2010,05,28,15,07,13.90
2010,05,28,15,08,13.90
2010,05,28,15,09,13.90
2010,05,28,15,10,13.90
2010,05,28,15,11,13.90
2010,05,28,15,12,13.90
2010,05,28,15,13,13.90
2010,05,28,15,14,13.90
2010,05,28,15,15,13.90
2010,05,28,15,16,13.90
2010,05,28,15,17,13.90
2010,05,28,15,18,13.90
2010,05,28,15,19,13.90
2010,05,28,15,20,14.00
2010,05,28,15,21,14.00
2010,05,28,15,22,14.00
2010,05,28,15,23,14.00
2010,05,28,15,24,13.90
2010,05,28,15,25,13.90
2010,05,28,15,26,13.90
2010,05,28,15,27,13.90
2010,05,28,15,28,13.80
2010,05,28,15,29,13.80
2010,05,28,15,30,13.80
2010,05,28,15,31,13.80
2010,05,28,15,32,13.80
2010,05,28,15,33,13.80
2010,05,28,15,34,13.80
2010,05,28,15,35,13.80
2010,05,28,15,36,13.70
2010,05,28,15,37,13.70
2010,05,28,15,38,13.70
2010,05,28,15,39,13.70
2010,05,28,15,40,13.70
2010,05,28,15,41,13.80
2010,05,28,15,42,13.80
2010,05,28,15,43,13.80
2010,05,28,15,44,13.80
2010,05,28,15,45,13.80
2010,05,28,15,46,13.80
2010,05,28,15,47,13.80
2010,05,28,15,48,13.90
2010,05,28,15,49,13.90
2010,05,28,15,50,13.90
2010,05,28,15,51,13.90
2010,05,28,15,52,13.90
2010,05,28,15,53,13.90
2010,05,28,15,54,13.90
2010,05,28,15,55,13.80
2010,05,28,15,56,13.80
2010,05,28,15,57,13.80
2010,05,28,15,58,13.80
2010,05,28,15,59,13.80
2010,05,28,16,00,13.80
2010,05,28,16,01,13.80
2010,05,28,16,02,13.80
2010,05,28,16,03,13.80
2010,05,28,16,04,13.80
2010,05,28,16,05,13.70
2010,05,28,16,06,13.70
2010,05,28,16,07,13.70
2010,05,28,16,08,13.70
2010,05,28,16,09,13.70
2010,05,28,16,10,13.70
2010,05,28,16,11,13.70
2010,05,28,16,12,13.70
2010,05,28,16,13,13.70
2010,05,28,16,14,13.70
2010,05,28,16,15,13.70
2010,05,28,16,16,13.70
2010,05,28,16,17,13.70
2010,05,28,16,18,13.70
2010,05,28,16,19,13.70
2010,05,28,16,20,13.70
2010,05,28,16,21,13.70
2010,05,28,16,22,13.70
2010,05,28,16,23,13.70
2010,05,28,16,24,13.70
2010,05,28,16,25,13.70
2010,05,28,16,26,13.70
2010,05,28,16,27,13.70
2010,05,28,16,28,13.80
2010,05,28,16,29,13.80
2010,05,28,16,30,13.80
2010,05,28,16,31,13.80
2010,05,28,16,32,13.80
2010,05,28,16,33,13.80
2010,05,28,16,34,13.80
2010,05,28,16,35,13.80
2010,05,28,16,36,13.80
2010,05,28,16,37,13.80
2010,05,28,16,38,13.90
2010,05,28,16,39,13.90
2010,05,28,16,40,13.90
2010,05,28,16,41,13.90
2010,05,28,16,42,13.90
2010,05,28,16,43,13.90
2010,05,28,16,44,13.90
2010,05,28,16,45,13.90
2010,05,28,16,46,13.90
2010,05,28,16,47,13.90
2010,05,28,16,48,13.90
2010,05,28,16,49,13.90
2010,05,28,16,50,13.90
2010,05,28,16,51,13.90
2010,05,28,16,52,13.90
2010,05,28,16,53,13.90
2010,05,28,16,54,14.00
2010,05,28,16,55,14.00
2010,05,28,16,56,14.10
2010,05,28,16,57,14.10
2010,05,28,16,58,14.10
2010,05,28,16,59,14.10
2010,05,28,17,00,14.10
2010,05,28,17,01,14.20
2010,05,28,17,02,14.20
2010,05,28,17,03,14.20
2010,05,28,17,04,14.20
2010,05,28,17,05,14.20
2010,05,28,17,06,14.10
2010,05,28,17,07,14.10
2010,05,28,17,08,14.10
2010,05,28,17,09,14.10
2010,05,28,17,10,14.10
2010,05,28,17,11,14.10
2010,05,28,17,12,14.10
2010,05,28,17,13,14.10
2010,05,28,17,14,14.10
2010,05,28,17,15,14.10
2010,05,28,17,16,14.10
2010,05,28,17,17,14.10
2010,05,28,17,18,14.10
2010,05,28,17,19,14.00
2010,05,28,17,20,14.00
2010,05,28,17,21,14.00
2010,05,28,17,22,14.00
2010,05,28,17,23,14.00
2010,05,28,17,24,14.00
2010,05,28,17,25,14.00
2010,05,28,17,26,14.00
2010,05,28,17,27,14.00
2010,05,28,17,28,14.00
2010,05,28,17,29,14.00
2010,05,28,17,30,14.00
2010,05,28,17,31,14.00
2010,05,28,17,32,14.00
